[[{"header":{"parameterUnit":"m.s-1","parameterCategory":1,"la1":30.2991,"la2":30.254,"lo1":-89.0895,"lo2":-89.0444,"dy":0.0017,"dx":0.0017,"nx":28,"ny":28,"refTime":"2023-09-16T09:00:00:Z","depth":0,"parameterNumber":2,"parameterNumberName":"U-component_of_WINDS"},"data":[0,0,0,0,0,0,0,0,0,0,0,0,0,0,0,0,0,0,0,0,0,0,0,0,0,0,0,0,0,0,0,0,0,0,0,0,0,0,0,0,0,0,0,0,0,0,0,0,0,0,0,0,0,0,0,0,0,0,1.11,1.11,0,1.1071,1.1071,1.1071,1.1028,1.1028,1.1027,1.1026,1.0997,1.0997,1.0997,0,0,0,0,0,0,0,0,0,0,0,0,0,1.1119,1.1119,1.11,1.11,1.11,1.1071,1.1071,1.1071,1.1029,1.1028,1.1027,1.1026,1.0997,1.0997,1.0997,0,0,0,0,0,0,0,0,0,0,0,0,0,1.1103,1.1119,1.11,1.1075,1.1073,1.1071,1.1071,1.107,1.1029,1.1028,1.1027,1.1026,1.0997,1.0997,1.0997,1.1018,0,0,1.0996,1.0996,0,0,0,0,0,0,0,0,1.1104,1.1102,1.1079,1.1077,1.1074,1.1052,1.1067,1.1053,1.1029,1.1045,1.1026,1.1025,1.1016,1.1014,1.1011,1.1016,1.1015,1.0996,1.0996,1.0996,1.0996,0,0,0,0,0,0,0,1.1105,1.1103,1.1089,1.1079,1.1076,1.1065,1.1062,1.1064,1.1037,1.1044,1.1041,1.1038,1.1015,1.1012,1.101,1.1015,1.0996,1.0996,1.0996,1.0996,1.1033,1.1034,0,0,0,0,0,0,1.111,1.1104,1.109,1.1088,1.1086,1.1066,1.1062,1.106,1.1037,1.1033,1.1039,1.1036,1.1012,1.1011,1.1009,1.1031,1.0996,1.0996,1.0996,1.1032,1.1034,1.1035,0,0,0,0,0,0,1.111,1.1109,1.1091,1.1095,1.1092,1.1067,1.1065,1.106,1.1057,1.1033,1.1028,1.1041,1.1012,1.1009,1.1015,1.1029,1.0996,1.0996,1.1031,1.1033,1.1034,1.1075,0,0,0,0,0,0,1.1111,1.1109,1.1117,1.1096,1.1092,1.1098,1.1066,1.1061,1.1057,1.1053,1.1034,1.103,1.101,1.1016,1.1015,1.1028,1.0996,1.103,1.1032,1.1034,1.1072,1.1078,1.1082,0,0,0,0,0,1.1112,1.113,1.1118,1.1116,1.1101,1.1099,1.1097,1.1074,1.1059,1.1066,1.105,1.103,1.1028,1.1017,1.1016,1.1029,1.1029,1.1031,1.1034,1.107,1.1077,1.1082,0,0,0,0,0,0,1.1154,1.1127,1.1113,1.1125,1.1114,1.1092,1.11,1.1082,1.1076,1.1073,1.1045,1.1041,1.105,1.1041,1.1029,1.1047,1.1025,1.1028,1.1053,1.1059,1.1064,1.1066,1.0995,0,0,0,0,0,1.1165,1.1165,1.1141,1.1154,1.115,1.1126,1.1124,1.1108,1.1096,1.1091,1.1076,1.1065,1.1062,1.106,1.1056,1.1071,1.1065,1.108,1.1085,1.1089,1.1091,1.1096,1.1102,1.1043,1.1043,1.1043,0,0,1.1187,1.1172,1.1174,1.1162,1.1152,1.1153,1.1123,1.1125,1.1124,1.1092,1.1096,1.1084,1.1071,1.1081,1.1084,1.1073,1.1106,1.1092,1.1096,1.1095,1.1099,1.1105,1.111,1.1045,1.1044,1.1044,0,0,1.1227,1.1217,1.1225,1.1216,1.1201,1.1185,1.1187,1.1167,1.1158,1.1162,1.1136,1.1136,1.1131,1.1122,1.1117,1.1153,1.1133,1.1152,1.1178,1.1184,1.1188,1.1192,1.1203,1.1208,1.1154,1.1154,1.1155,0,1.1256,1.1256,1.1232,1.1235,1.123,1.12,1.1208,1.1201,1.1185,1.1182,1.117,1.1162,1.1151,1.1157,1.1166,1.1163,1.1164,1.1153,1.119,1.1193,1.1197,1.1207,1.1211,1.1157,1.1156,1.1156,1.1156,0,1.1292,1.1292,1.1301,1.1286,1.1282,1.1288,1.1265,1.1264,1.1248,1.1233,1.1237,1.1222,1.1214,1.1214,1.1199,1.1218,1.1211,1.1195,1.1172,1.1205,1.1214,1.1218,1.116,1.1159,1.1158,1.1158,0,0,1.1357,1.1329,1.1332,1.1324,1.1306,1.1305,1.1309,1.1301,1.13,1.129,1.1292,1.1289,1.1273,1.1267,1.125,1.1255,1.1282,1.1237,1.1237,1.1245,1.1301,1.1312,1.1317,1.127,1.1271,1.1271,1.1301,0,1.1392,1.1397,1.1376,1.1386,1.1385,1.1357,1.136,1.1349,1.1335,1.1332,1.1317,1.1314,1.1294,1.129,1.1294,1.1278,1.1293,1.1276,1.127,1.127,1.1273,1.1322,1.1335,1.1364,1.1305,1.1305,1.1306,0,1.1433,1.1425,1.1436,1.1415,1.1414,1.1417,1.1407,1.1405,1.1391,1.1381,1.1374,1.1354,1.1356,1.1336,1.1337,1.1326,1.1323,1.1314,1.1315,1.1312,1.1289,1.1319,1.1373,1.1376,1.1312,1.1311,1.1311,0,1.1478,1.147,1.1474,1.1469,1.1446,1.1448,1.1439,1.1424,1.142,1.1411,1.1408,1.14,1.1395,1.1389,1.1367,1.1354,1.1371,1.1349,1.1361,1.1362,1.1365,1.1365,1.1417,1.1366,1.1366,1.1365,1.1365,0,1.1518,1.1525,1.1494,1.1496,1.1503,1.1478,1.1486,1.1473,1.146,1.146,1.1435,1.1435,1.1408,1.1404,1.1388,1.1391,1.1389,1.138,1.1375,1.1381,1.1382,1.1377,1.1374,1.1367,1.1366,1.1366,1.1366,0,1.1568,1.1548,1.155,1.1528,1.1522,1.1528,1.1509,1.151,1.1495,1.1494,1.1493,1.1469,1.1464,1.1442,1.1432,1.1421,1.1428,1.142,1.1433,1.1429,1.1443,1.1441,1.1492,1.1497,1.1445,1.1445,1.1446,0,1.1594,1.1599,1.1577,1.1574,1.1566,1.1563,1.1558,1.1534,1.153,1.1514,1.1517,1.151,1.1503,1.1496,1.1477,1.1469,1.1459,1.1478,1.1458,1.1463,1.1457,1.1456,1.1456,1.1481,1.1482,1.1483,1.1483,0,1.1643,1.1632,1.1626,1.1617,1.1612,1.1604,1.1594,1.1593,1.1566,1.1563,1.1557,1.1552,1.1541,1.1533,1.1522,1.1511,1.1492,1.149,1.1492,1.1497,1.1504,1.1498,1.1443,1.1488,1.1488,1.1487,1.1487,1.1487,1.168,1.1682,1.1667,1.1661,1.1651,1.1642,1.1642,1.1626,1.1621,1.161,1.1596,1.1592,1.1577,1.1559,1.155,1.1546,1.1536,1.1539,1.154,1.1541,1.1543,1.1506,1.1544,1.1544,1.1544,1.1544,1.1543,0,1.1726,1.1714,1.1709,1.1696,1.1691,1.1674,1.1662,1.1659,1.1655,1.1643,1.1636,1.1629,1.1621,1.1602,1.1592,1.1593,1.1584,1.1591,1.159,1.1587,1.1554,1.1552,1.1598,1.1598,1.1598,1.1598,1.1598,1.1598,1.1749,1.1751,1.1738,1.1735,1.1724,1.1719,1.1713,1.1704,1.1694,1.1687,1.1681,1.1668,1.1653,1.1642,1.1634,1.1628,1.1625,1.1635,1.1626,1.1595,1.159,1.1585,1.1583,1.1635,1.1635,1.166,1.166,1.166]},{"header":{"parameterUnit":"m.s-1","parameterCategory":1,"la1":30.2991,"la2":30.254,"lo1":-89.0895,"lo2":-89.0444,"dy":0.0017,"dx":0.0017,"nx":28,"ny":28,"refTime":"2023-09-16T09:00:00:Z","depth":0,"parameterNumber":3,"parameterNumberName":"V-component_of_WINDS"},"data":[0,0,0,0,0,0,0,0,0,0,0,0,0,0,0,0,0,0,0,0,0,0,0,0,0,0,0,0,0,0,0,0,0,0,0,0,0,0,0,0,0,0,0,0,0,0,0,0,0,0,0,0,0,0,0,0,0,0,2.6417,2.6417,0,2.6408,2.6408,2.6408,2.6378,2.6377,2.6377,2.6376,2.6366,2.6367,2.6367,0,0,0,0,0,0,0,0,0,0,0,0,0,2.6406,2.6407,2.6417,2.6417,2.6417,2.6408,2.6408,2.6408,2.6378,2.6377,2.6376,2.6376,2.6366,2.6367,2.6367,0,0,0,0,0,0,0,0,0,0,0,0,0,2.6406,2.6407,2.6417,2.6401,2.6399,2.6408,2.6408,2.6408,2.6378,2.6377,2.6376,2.6375,2.6366,2.6366,2.6367,2.639,0,0,2.6369,2.6369,0,0,0,0,0,0,0,0,2.6406,2.6406,2.6403,2.6402,2.64,2.6393,2.6401,2.6402,2.6378,2.6386,2.6376,2.6375,2.6376,2.6376,2.6376,2.639,2.639,2.6369,2.6369,2.6369,2.6369,0,0,0,0,0,0,0,2.6406,2.6406,2.6413,2.6403,2.6401,2.6393,2.6392,2.6401,2.6387,2.6385,2.6383,2.6383,2.6375,2.6376,2.6376,2.6389,2.6369,2.6369,2.637,2.637,2.642,2.6421,0,0,0,0,0,0,2.6408,2.6407,2.6414,2.6413,2.6401,2.6394,2.6393,2.6396,2.6387,2.6384,2.6383,2.6381,2.6375,2.6375,2.6375,2.6401,2.6369,2.637,2.637,2.6419,2.6421,2.6422,0,0,0,0,0,0,2.6408,2.6409,2.6414,2.6409,2.6409,2.6396,2.64,2.6397,2.6397,2.6385,2.6382,2.6387,2.6374,2.6374,2.6387,2.64,2.637,2.6371,2.6418,2.642,2.6421,2.6453,0,0,0,0,0,0,2.6408,2.6409,2.6419,2.641,2.641,2.6426,2.64,2.6397,2.6398,2.6395,2.6388,2.6385,2.6374,2.6386,2.6387,2.64,2.6371,2.6417,2.6419,2.6421,2.645,2.6455,2.6459,0,0,0,0,0,2.6408,2.6428,2.6419,2.642,2.6421,2.6427,2.6427,2.6413,2.64,2.6408,2.64,2.6386,2.6399,2.6387,2.6389,2.6402,2.6416,2.6418,2.6421,2.6448,2.6454,2.6459,0,0,0,0,0,0,2.6439,2.6427,2.6417,2.6435,2.6432,2.6422,2.6432,2.642,2.6421,2.6418,2.6401,2.6399,2.6413,2.6409,2.6397,2.6423,2.6405,2.6407,2.6426,2.6431,2.6435,2.6435,2.6371,0,0,0,0,0,2.6448,2.6454,2.6443,2.646,2.6459,2.6446,2.6448,2.6438,2.6434,2.6433,2.6426,2.6423,2.6426,2.6428,2.6431,2.645,2.6447,2.646,2.6464,2.6468,2.647,2.6478,2.6483,2.6429,2.6429,2.6429,0,0,2.6467,2.6461,2.6466,2.6466,2.6463,2.6469,2.6445,2.6453,2.6457,2.6434,2.6445,2.6439,2.6435,2.645,2.6456,2.6447,2.6484,2.6471,2.6474,2.6474,2.6481,2.6486,2.6491,2.6431,2.643,2.643,0,0,2.6504,2.65,2.6513,2.651,2.6505,2.6496,2.65,2.6491,2.6486,2.6497,2.6479,2.6484,2.649,2.6487,2.6486,2.6521,2.6507,2.6522,2.6545,2.6553,2.6557,2.6561,2.6572,2.6576,2.6524,2.6524,2.6525,0,2.6527,2.6536,2.6522,2.653,2.653,2.6509,2.6522,2.652,2.6516,2.6516,2.6506,2.6512,2.6507,2.6521,2.6529,2.653,2.6532,2.6522,2.6558,2.6561,2.6564,2.6575,2.6579,2.6526,2.6526,2.6526,2.6526,0,2.6565,2.6571,2.6582,2.6579,2.658,2.6591,2.6577,2.658,2.657,2.6562,2.6572,2.6565,2.6565,2.6568,2.6558,2.658,2.6574,2.6561,2.6542,2.6572,2.6581,2.6585,2.6529,2.6528,2.6528,2.6527,0,0,2.6621,2.6609,2.6613,2.661,2.6603,2.6608,2.6617,2.6617,2.6619,2.6617,2.6624,2.6629,2.6616,2.6616,2.6605,2.6612,2.6638,2.6598,2.6598,2.6605,2.666,2.6669,2.6674,2.6629,2.663,2.663,2.666,0,2.6655,2.667,2.6657,2.6674,2.6679,2.6659,2.6667,2.6663,2.6655,2.6658,2.665,2.6653,2.6637,2.6636,2.6643,2.6634,2.6649,2.6632,2.6634,2.6634,2.6635,2.6679,2.6689,2.6717,2.6664,2.6664,2.6665,0,2.6697,2.6696,2.6714,2.6704,2.6706,2.6713,2.6711,2.6714,2.6709,2.6703,2.6702,2.6688,2.6696,2.6678,2.6687,2.6675,2.6675,2.6671,2.6672,2.6671,2.6651,2.6678,2.6726,2.673,2.6671,2.667,2.667,0,2.6734,2.6738,2.6749,2.6747,2.6737,2.6742,2.6738,2.6732,2.6732,2.673,2.673,2.673,2.6729,2.6728,2.6715,2.6703,2.6725,2.6706,2.672,2.672,2.6724,2.6724,2.6772,2.6727,2.6727,2.6726,2.6726,0,2.6773,2.6784,2.6765,2.6772,2.6783,2.6768,2.678,2.6773,2.6768,2.6772,2.6755,2.6759,2.6741,2.6744,2.6733,2.6742,2.6742,2.6736,2.6733,2.6737,2.6738,2.6736,2.6734,2.6728,2.6727,2.6727,2.6727,0,2.6817,2.6805,2.6815,2.6803,2.6801,2.681,2.68,2.6805,2.6796,2.6802,2.6802,2.6788,2.679,2.6777,2.6776,2.6769,2.6781,2.6776,2.6783,2.6781,2.6794,2.6793,2.6842,2.6847,2.68,2.68,2.6801,0,2.6842,2.685,2.6839,2.6841,2.6837,2.684,2.684,2.6825,2.6826,2.682,2.6825,2.6825,2.6825,2.6828,2.6817,2.6816,2.6809,2.6827,2.6809,2.6812,2.6808,2.6807,2.6807,2.683,2.6831,2.6831,2.6832,0,2.6887,2.688,2.6881,2.6879,2.688,2.6878,2.6875,2.6877,2.686,2.6862,2.6863,2.6863,2.6861,2.6861,2.6858,2.6853,2.6839,2.6837,2.684,2.6844,2.6847,2.6844,2.6792,2.6836,2.6836,2.6835,2.6835,2.6835,2.6921,2.6927,2.692,2.6921,2.6917,2.6914,2.6918,2.6909,2.691,2.6908,2.6899,2.6901,2.6895,2.6889,2.6885,2.6886,2.6877,2.6882,2.6883,2.6884,2.6885,2.6848,2.6885,2.6885,2.6885,2.6885,2.6885,0,2.6964,2.6958,2.696,2.6956,2.6956,2.6944,2.6939,2.694,2.6943,2.6938,2.6937,2.6938,2.6937,2.6927,2.6925,2.6928,2.6921,2.6928,2.6927,2.6925,2.6894,2.6891,2.6933,2.6933,2.6933,2.6933,2.6933,2.6933,2.6986,2.6995,2.6987,2.6993,2.6987,2.699,2.6988,2.6985,2.6981,2.6982,2.6982,2.6975,2.6967,2.6964,2.6963,2.6959,2.6959,2.6967,2.6962,2.6932,2.6928,2.6923,2.6921,2.6968,2.6968,2.6993,2.6993,2.6993]}]]